Location: Central Coast NSW, Australia
(33.2407°S, 151.4316°E)
Time: 15:35:09
(UTC+11:00)

ISS - Pass Details

Date: 30 January 2019
Orbit: 411 x 421 km, 51.6° (Epoch: 23 October)

Event Time Altitude Azimuth Distance (km) Brightness Sun altitude
Exits shadow 03:27:17 14° 107° (ESE) 1,275 -0.7 -28.9°
Drops below altitude 10° 03:27:56 10° 113° (ESE) 1,510 -0.2 -28.9°
Sets 03:30:11 0° 124° (ESE) 2,377 1.2 -28.6°
